Location: San Antonio
(29.4240°N, 98.4930°W)
Time: 06:53:43
(UTC-05:00)

Courier 1B - Pass Details

Date: 15 July 2024
Orbit: 962 x 1208 km, 28.3° (Epoch: 23 June)

Event Time Altitude Azimuth Distance (km) Brightness Sun altitude
Rises 23:12:50 0° 264° (W) 3,676 11.0 -28.1°
Reaches altitude 10° 23:17:03 10° 239° (WSW) 2,697 9.9 -28.7°
Enters shadow 23:18:43 13° 225° (SW) 2,490 9.5 -28.9°
